Showing default

LEMUR 2 BASS, 58259

Orbit data source: Space-Track

LEMUR 2 BASS, 58259 is an American payload satellite in SSO that was launched on Sat, 11 Nov 2023 UTC via an FALCON 9 launch vehicle from the Air Force Western Test Range (AFWTR). Payload-class satellites include a variety of spacecraft equipped with specific instruments for various scientific and technological missions. These include communications satellites like Starlink; space stations such as the ISS; scientific satellites like the Hubble; Earth observation satellites from companies like Planet Labs, Umbra, and HawkEye 360; GPS; miniature CubeSats for education and research; and military/defense satellites.

Loading next visibility...
Identifier
58259, 2023-174D
Orbit
SSO
Country
Flag of USUS
Related business
Manufacturer
Spire/Glasgow
Mission
Operational Commercial Earth Obs Sci
Bus & Motor
CUBESAT 16U, Unknown motor
Mass
~20 kg wet, ~20 kg dry
Launch date (UTC)
2023-11-11 (3 years ago)
Launch vehicle
FALCON 9
Launch site
Air Force Western Test Range (AFWTR)
Object type
Payload
Rocket body
Debris
Shape & HBR
Box, 0.3 m
Radar Cross Section
0.240 m², Medium (>0.1 m² and < 1m²)

Expand to show TLE details & history
Last TLE update: 10 hours ago

TLE from 10 hours ago
0 LEMUR 2 BASS
1 58259U 23174D   26254.51223218  .00015080  00000-0  31385-3 0  9996
2 58259  97.3815 340.5765 0005978 205.2596 154.8362 15.45697438158681
Epoch: 2026-09-11T12:17Z
TLE epoch observation values (Epoch: 2026-09-11T12:17:36.860Z)
Latitude
0.00002°
Longitude
165.63839°
Altitude
436.14 km
Speed
7.648 km/s
True Right ascension
22h 42m 18s
True Declination
0° 00' 00"
Sunlit
Object was in full shadow at epoch
Visualization orbit readout
Latitude
Unknown
Longitude
Unknown
Altitude
Unknown
Speed
Unknown
Apparent Right ascension
Unknown
Apparent Declination
Unknown
Sunlit
N/A
Visualization observer readout
Local Sidereal Time
15:01:27
Azimuth
Unknown
Elevation
Unknown
Doppler factor
Unknown
Orbital elements
Apogee altitude
430.328 km
Perigee altitude
422.192 km
Semi-major axis
6,804.397 km
Eccentricity
0.0006
Inclination
97.3815°
RAAN
340.5765°
Arg. of periapsis
205.2596°
True anomaly
154.86531°
Mean anomaly
154.8362°
Eccentric anomaly
154.85076°
Mean motion
3.86686 °/min
Orbital period
93.1 mins
BSTAR
0.00031385
Loading maneuver chart data...
Computing Atmospheric mass density...

Documentation

Showing up to 5 results
|